When you browse on this site, cookies collect data to enhance your experience and personalize the content and advertising you see.
Visit our Privacy Policy to learn more. By continuing to use the site, you agree to this use of cookies and data.
  • In Romania
  • List of Countries
  • For 7 days
  • Water Temperature
  • Weather Map
  • Weather Widgets
  • user-avatar
    Login

    Hourly Weather Artashat

    Today, 27 May, Wednesday

    Time Temperature Precipitation Wind Pressure Humidity
    00:00 +10°C° 0 mm 0 mps 604 mmHg 60%
    01:00 +10°C° 0 mm 0 mps 604 mmHg 60%
    02:00 +9°C° 0 mm 0 mps 603 mmHg 60%
    03:00 +10°C° 0 mm 1 mps 603 mmHg 60%
    04:00 +11°C° 0 mm 1 mps 604 mmHg 61%
    05:00 +12°C° 0 mm 1 mps 605 mmHg 61%
    06:00 +11°C° 0 mm 0 mps 605 mmHg 62%
    07:00 +14°C° 0 mm 1 mps 606 mmHg 56%
    08:00 +15°C° 0 mm 1 mps 606 mmHg 50%
    09:00 +18°C° 0 mm 1 mps 607 mmHg 44%
    10:00 +18°C° 0 mm 2 mps 607 mmHg 42%
    11:00 +19°C° 0 mm 2 mps 607 mmHg 40%
    12:00 +20°C° 0 mm 3 mps 607 mmHg 38%
    13:00 +21°C° 0 mm 3 mps 607 mmHg 38%
    14:00 +21°C° 0 mm 3 mps 607 mmHg 38%
    15:00 +22°C° 0 mm 3 mps 607 mmHg 37%
    16:00 +21°C° 0 mm 2 mps 607 mmHg 39%
    17:00 +21°C° 0 mm 2 mps 607 mmHg 41%
    18:00 +21°C° 0 mm 1 mps 607 mmHg 43%
    19:00 +20°C° 0 mm 1 mps 606 mmHg 47%
    20:00 +18°C° 0 mm 1 mps 606 mmHg 51%
    21:00 +14°C° 0 mm 0 mps 605 mmHg 55%
    22:00 +13°C° 0 mm 0 mps 605 mmHg 55%
    23:00 +13°C° 0 mm 0 mps 604 mmHg 55%

    Tomorrow, 28 May, Thursday

    Time Temperature Precipitation Wind Pressure Humidity
    00:00 +12°C° 0 mm 0 mps 604 mmHg 55%
    01:00 +12°C° 0 mm 0 mps 604 mmHg 57%
    02:00 +11°C° 0 mm 0 mps 604 mmHg 58%
    03:00 +11°C° 0 mm 0 mps 603 mmHg 59%
    04:00 +12°C° 0 mm 0 mps 604 mmHg 60%
    05:00 +13°C° 0 mm 0 mps 604 mmHg 61%
    06:00 +14°C° 0 mm 0 mps 605 mmHg 62%
    07:00 +15°C° 0 mm 0 mps 605 mmHg 55%
    08:00 +19°C° 0 mm 1 mps 606 mmHg 48%
    09:00 +20°C° 0 mm 1 mps 606 mmHg 41%
    10:00 +22°C° 0 mm 1 mps 606 mmHg 38%
    11:00 +23°C° 0 mm 2 mps 606 mmHg 36%
    12:00 +24°C° 0 mm 2 mps 607 mmHg 33%
    13:00 +24°C° 0 mm 2 mps 606 mmHg 32%
    14:00 +24°C° 0 mm 2 mps 606 mmHg 31%
    15:00 +25°C° 0 mm 2 mps 606 mmHg 30%
    16:00 +24°C° 0 mm 3 mps 605 mmHg 34%
    17:00 +22°C° 0 mm 4 mps 605 mmHg 38%
    18:00 +21°C° 0 mm 5 mps 605 mmHg 42%
    19:00 +19°C° 0.1 mm 4 mps 604 mmHg 44%
    20:00 +18°C° 0.1 mm 3 mps 604 mmHg 47%
    21:00 +16°C° 0.1 mm 2 mps 603 mmHg 49%
    22:00 +15°C° 0.2 mm 2 mps 603 mmHg 50%
    23:00 +15°C° 0.2 mm 1 mps 603 mmHg 51%

    Day after tomorrow, 29 May, Friday

    Time Temperature Precipitation Wind Pressure Humidity
    00:00 +14°C° 0.2 mm 1 mps 602 mmHg 52%
    01:00 +14°C° 0.1 mm 1 mps 602 mmHg 54%
    02:00 +13°C° 0.1 mm 1 mps 601 mmHg 55%
    03:00 +12°C° 0.1 mm 0 mps 600 mmHg 57%
    04:00 +13°C° 0 mm 0 mps 601 mmHg 57%
    05:00 +14°C° 0 mm 1 mps 601 mmHg 57%
    06:00 +15°C° 0 mm 1 mps 601 mmHg 57%
    07:00 +18°C° 0 mm 1 mps 602 mmHg 51%
    08:00 +18°C° 0 mm 2 mps 602 mmHg 46%
    09:00 +20°C° 0 mm 3 mps 602 mmHg 40%
    10:00 +21°C° 0 mm 3 mps 602 mmHg 36%
    11:00 +23°C° 0 mm 4 mps 603 mmHg 32%
    12:00 +25°C° 0 mm 5 mps 603 mmHg 29%
    13:00 +26°C° 0 mm 6 mps 603 mmHg 26%
    14:00 +26°C° 0 mm 6 mps 603 mmHg 23%
    15:00 +27°C° 0 mm 7 mps 602 mmHg 21%
    16:00 +24°C° 0 mm 6 mps 602 mmHg 24%
    17:00 +23°C° 0 mm 6 mps 602 mmHg 28%
    18:00 +21°C° 0 mm 6 mps 601 mmHg 32%
    19:00 +19°C° 0 mm 4 mps 601 mmHg 33%
    20:00 +17°C° 0 mm 3 mps 600 mmHg 35%
    21:00 +15°C° 0 mm 2 mps 600 mmHg 37%
    22:00 +14°C° 0 mm 2 mps 600 mmHg 39%
    23:00 +14°C° 0 mm 2 mps 600 mmHg 42%

    30 May, Saturday

    Time Temperature Precipitation Wind Pressure Humidity
    00:00 +13°C° 0 mm 1 mps 599 mmHg 44%
    01:00 +12°C° 0 mm 2 mps 599 mmHg 46%
    02:00 +10°C° 0 mm 2 mps 599 mmHg 48%
    03:00 +9°C° 0 mm 3 mps 599 mmHg 51%
    04:00 +10°C° 0 mm 2 mps 599 mmHg 51%
    05:00 +10°C° 0 mm 2 mps 599 mmHg 52%
    06:00 +10°C° 0 mm 2 mps 600 mmHg 52%
    07:00 +13°C° 0 mm 2 mps 600 mmHg 46%
    08:00 +14°C° 0 mm 2 mps 601 mmHg 40%
    09:00 +16°C° 0 mm 2 mps 602 mmHg 34%
    10:00 +17°C° 0 mm 2 mps 602 mmHg 30%
    11:00 +18°C° 0 mm 2 mps 603 mmHg 26%
    12:00 +19°C° 0 mm 2 mps 603 mmHg 22%
    13:00 +20°C° 0 mm 2 mps 603 mmHg 22%
    14:00 +20°C° 0 mm 2 mps 603 mmHg 21%
    15:00 +21°C° 0 mm 2 mps 603 mmHg 21%
    16:00 +20°C° 0 mm 2 mps 603 mmHg 24%
    17:00 +20°C° 0 mm 2 mps 602 mmHg 26%
    18:00 +19°C° 0 mm 2 mps 602 mmHg 29%
    19:00 +17°C° 0 mm 2 mps 602 mmHg 32%
    20:00 +15°C° 0 mm 2 mps 602 mmHg 35%
    21:00 +14°C° 0 mm 2 mps 602 mmHg 38%
    22:00 +13°C° 0 mm 2 mps 602 mmHg 39%
    23:00 +12°C° 0 mm 2 mps 602 mmHg 40%

    31 May, Sunday

    Time Temperature Precipitation Wind Pressure Humidity
    00:00 +11°C° 0 mm 3 mps 602 mmHg 42%
    01:00 +10°C° 0 mm 3 mps 602 mmHg 44%
    02:00 +10°C° 0 mm 2 mps 601 mmHg 47%
    03:00 +9°C° 0 mm 2 mps 601 mmHg 50%
    04:00 +9°C° 0 mm 2 mps 602 mmHg 51%
    05:00 +10°C° 0 mm 2 mps 602 mmHg 52%
    06:00 +12°C° 0 mm 2 mps 603 mmHg 52%
    07:00 +13°C° 0 mm 2 mps 603 mmHg 47%
    08:00 +14°C° 0 mm 1 mps 604 mmHg 41%
    09:00 +16°C° 0 mm 1 mps 604 mmHg 35%
    10:00 +17°C° 0 mm 2 mps 604 mmHg 33%
    11:00 +18°C° 0 mm 2 mps 605 mmHg 30%
    12:00 +19°C° 0 mm 2 mps 605 mmHg 28%
    13:00 +20°C° 0 mm 2 mps 605 mmHg 28%
    14:00 +20°C° 0 mm 2 mps 605 mmHg 27%
    15:00 +21°C° 0 mm 2 mps 604 mmHg 26%
    16:00 +20°C° 0 mm 2 mps 604 mmHg 29%
    17:00 +20°C° 0 mm 2 mps 604 mmHg 31%
    18:00 +19°C° 0 mm 2 mps 604 mmHg 33%
    19:00 +18°C° 0 mm 2 mps 603 mmHg 38%
    20:00 +16°C° 0 mm 1 mps 603 mmHg 42%
    21:00 +13°C° 0 mm 0 mps 602 mmHg 46%
    22:00 +13°C° 0 mm 1 mps 602 mmHg 46%
    23:00 +13°C° 0 mm 1 mps 602 mmHg 46%

    1 June, Monday

    Time Temperature Precipitation Wind Pressure Humidity
    00:00 +13°C° 0 mm 1 mps 602 mmHg 46%
    01:00 +12°C° 0 mm 1 mps 602 mmHg 47%
    02:00 +10°C° 0 mm 0 mps 601 mmHg 48%
    03:00 +10°C° 0 mm 0 mps 601 mmHg 49%
    04:00 +11°C° 0 mm 0 mps 602 mmHg 50%
    05:00 +12°C° 0 mm 0 mps 602 mmHg 51%
    06:00 +13°C° 0 mm 0 mps 603 mmHg 52%
    07:00 +15°C° 0 mm 1 mps 603 mmHg 46%
    08:00 +18°C° 0 mm 1 mps 604 mmHg 41%
    09:00 +19°C° 0 mm 1 mps 604 mmHg 35%
    10:00 +21°C° 0 mm 1 mps 605 mmHg 31%
    11:00 +21°C° 0 mm 2 mps 605 mmHg 27%
    12:00 +23°C° 0 mm 2 mps 605 mmHg 24%
    13:00 +24°C° 0 mm 3 mps 605 mmHg 23%
    14:00 +23°C° 0 mm 4 mps 605 mmHg 22%
    15:00 +25°C° 0 mm 4 mps 605 mmHg 21%
    16:00 +23°C° 0 mm 4 mps 605 mmHg 25%
    17:00 +22°C° 0 mm 4 mps 604 mmHg 28%
    18:00 +21°C° 0 mm 4 mps 603 mmHg 31%
    19:00 +20°C° 0 mm 3 mps 603 mmHg 34%
    20:00 +18°C° 0 mm 3 mps 603 mmHg 36%
    21:00 +16°C° 0 mm 2 mps 602 mmHg 38%
    22:00 +16°C° 0 mm 2 mps 602 mmHg 38%
    23:00 +15°C° 0 mm 2 mps 602 mmHg 39%
    Show more